DAL419 KSAN-KLAS

Flight info

Callsign DAL419
Flight time N/A
Altitude 29000
Route PADRZ2 CHKNN SEBBY YELAH MISEN RNDRZ4
Aircraft A359/H-SDE2E3GHIJ3J4J5LM1ORWXY/LB1D1

Departure

Time 2026-04-26 07:44
Airport San Diego International Airport (KSAN)

Arrival

Time N/A
Airport Harry Reid International Airport (KLAS)
Time Latitude Longitude Altitude Speed Heading
2026-04-26 07:13 32.73299 -117.20334 30 ft 0 kts 259°
2026-04-26 07:34 32.73301 -117.20315 30 ft 4 kts 278°
2026-04-26 07:34 32.73300 -117.20286 30 ft 4 kts 270°
2026-04-26 07:34 32.73297 -117.20257 30 ft 4 kts 311°
2026-04-26 07:34 32.73295 -117.20253 30 ft 4 kts 342°
2026-04-26 07:35 32.73303 -117.20256 30 ft 0 kts 342°
2026-04-26 07:36 32.73307 -117.20258 30 ft 3 kts 342°
2026-04-26 07:36 32.73331 -117.20266 29 ft 0 kts 343°
2026-04-26 07:36 32.73341 -117.20269 29 ft 4 kts 344°
2026-04-26 07:36 32.73348 -117.20272 29 ft 1 kts 346°
2026-04-26 07:37 32.73409 -117.20269 28 ft 9 kts
2026-04-26 07:37 32.73450 -117.20257 29 ft 6 kts 14°
2026-04-26 07:37 32.73502 -117.20241 30 ft 8 kts 15°
2026-04-26 07:37 32.73539 -117.20202 31 ft 9 kts 65°
2026-04-26 07:38 32.73528 -117.20100 31 ft 15 kts 105°
2026-04-26 07:38 32.73501 -117.19988 32 ft 13 kts 105°
2026-04-26 07:38 32.73481 -117.19906 33 ft 7 kts 105°
2026-04-26 07:38 32.73466 -117.19843 33 ft 9 kts 106°
2026-04-26 07:39 32.73446 -117.19758 33 ft 12 kts 106°
2026-04-26 07:39 32.73420 -117.19649 32 ft 15 kts 107°
2026-04-26 07:39 32.73388 -117.19521 33 ft 15 kts 106°
2026-04-26 07:39 32.73361 -117.19413 32 ft 15 kts 106°
2026-04-26 07:40 32.73327 -117.19271 30 ft 21 kts 106°
2026-04-26 07:40 32.73284 -117.19101 32 ft 22 kts 107°
2026-04-26 07:40 32.73242 -117.18922 33 ft 24 kts 105°
2026-04-26 07:40 32.73197 -117.18729 35 ft 25 kts 105°
2026-04-26 07:41 32.73146 -117.18524 32 ft 28 kts 106°
2026-04-26 07:41 32.73090 -117.18295 31 ft 30 kts 106°
2026-04-26 07:41 32.73029 -117.18044 28 ft 33 kts 106°
2026-04-26 07:41 32.72966 -117.17789 27 ft 29 kts 107°
2026-04-26 07:42 32.72955 -117.17695 28 ft 0 kts 85°
2026-04-26 07:43 32.72956 -117.17684 28 ft 8 kts 78°
2026-04-26 07:43 32.73007 -117.17590 31 ft 9 kts 18°
2026-04-26 07:43 32.73023 -117.17606 31 ft 3 kts 288°
2026-04-26 07:43 32.73051 -117.17711 30 ft 40 kts 287°
2026-04-26 07:44 32.73204 -117.18347 32 ft 117 kts 287°
2026-04-26 07:44 32.73481 -117.19494 248 ft 160 kts 285°
2026-04-26 07:44 32.73890 -117.20734 985 ft 161 kts 302°
2026-04-26 07:44 32.74502 -117.21835 1598 ft 166 kts 302°
2026-04-26 07:45 32.75180 -117.23062 1850 ft 191 kts 301°
2026-04-26 07:45 32.75951 -117.24474 2121 ft 216 kts 301°
2026-04-26 07:45 32.76812 -117.26057 2416 ft 239 kts 301°
2026-04-26 07:45 32.77732 -117.27754 2966 ft 249 kts 301°
2026-04-26 07:46 32.78674 -117.29497 3710 ft 253 kts 301°
2026-04-26 07:46 32.79622 -117.31264 4463 ft 254 kts 300°
2026-04-26 07:46 32.80613 -117.33025 5160 ft 258 kts 304°
2026-04-26 07:46 32.81724 -117.34718 5846 ft 262 kts 306°
2026-04-26 07:47 32.82861 -117.36423 6539 ft 264 kts 305°
2026-04-26 07:47 32.83992 -117.38154 7148 ft 268 kts 305°
2026-04-26 07:47 32.85139 -117.39919 7814 ft 270 kts 304°
2026-04-26 07:47 32.86298 -117.41705 8456 ft 274 kts 304°
2026-04-26 07:48 32.87471 -117.43509 9117 ft 277 kts 304°
2026-04-26 07:48 32.88658 -117.45343 9770 ft 280 kts 304°
2026-04-26 07:48 32.89444 -117.46559 10210 ft 282 kts 303°
2026-04-26 07:48 32.90665 -117.48453 10544 ft 296 kts 303°
2026-04-26 07:49 32.91952 -117.50458 10791 ft 312 kts 303°
2026-04-26 07:49 32.93756 -117.53272 11091 ft 332 kts 303°
2026-04-26 07:49 32.95179 -117.55489 11449 ft 341 kts 303°
2026-04-26 07:50 32.98083 -117.60007 12566 ft 345 kts 302°
2026-04-26 07:50 32.99050 -117.61513 12934 ft 346 kts 302°
2026-04-26 07:50 33.00512 -117.63794 13474 ft 347 kts 302°
2026-04-26 07:50 33.01981 -117.66089 14004 ft 349 kts 301°
2026-04-26 07:51 33.03454 -117.68390 14546 ft 350 kts 301°
2026-04-26 07:51 33.04935 -117.70704 15066 ft 352 kts 301°
2026-04-26 07:51 33.06505 -117.72965 15578 ft 359 kts 307°
2026-04-26 07:51 33.08353 -117.74999 16079 ft 364 kts 312°
2026-04-26 07:52 33.10288 -117.76966 16554 ft 367 kts 312°
2026-04-26 07:52 33.12243 -117.78936 17019 ft 369 kts 312°
2026-04-26 07:52 33.14208 -117.80924 17472 ft 372 kts 311°
2026-04-26 07:52 33.16185 -117.82931 17935 ft 374 kts 311°
2026-04-26 07:53 33.18165 -117.84945 18392 ft 375 kts 311°
2026-04-26 07:53 33.20154 -117.86971 18832 ft 377 kts 311°
2026-04-26 07:53 33.22190 -117.88977 19223 ft 381 kts 313°
2026-04-26 07:53 33.24259 -117.90976 19632 ft 384 kts 312°
2026-04-26 07:54 33.26336 -117.92985 20052 ft 385 kts 312°
2026-04-26 07:54 33.28421 -117.95008 20494 ft 386 kts 312°
2026-04-26 07:54 33.30507 -117.97040 20883 ft 388 kts 312°
2026-04-26 07:54 33.32605 -117.99089 21211 ft 392 kts 312°
2026-04-26 07:55 33.34721 -118.01160 21574 ft 394 kts 312°
2026-04-26 07:55 33.36838 -118.03231 22031 ft 393 kts 312°
2026-04-26 07:55 33.38958 -118.05305 22398 ft 395 kts 312°
2026-04-26 07:55 33.41094 -118.07399 22724 ft 398 kts 312°
2026-04-26 07:56 33.43239 -118.09503 23055 ft 400 kts 312°
2026-04-26 07:56 33.45394 -118.11618 23395 ft 402 kts 312°
2026-04-26 07:56 33.47562 -118.13746 23716 ft 404 kts 312°
2026-04-26 07:56 33.49740 -118.15888 24025 ft 406 kts 312°
2026-04-26 07:57 33.51896 -118.18010 24350 ft 408 kts 312°
2026-04-26 07:57 33.54092 -118.20170 24669 ft 410 kts 312°
2026-04-26 07:57 33.56323 -118.22325 24981 ft 414 kts 314°
2026-04-26 07:57 33.58785 -118.24218 25266 ft 427 kts 323°
2026-04-26 07:58 33.61473 -118.25790 25583 ft 433 kts 326°
2026-04-26 07:58 33.64221 -118.27298 25886 ft 435 kts 326°
2026-04-26 07:58 33.67032 -118.28712 26185 ft 443 kts 332°
2026-04-26 07:58 33.70062 -118.29662 26500 ft 458 kts 342°
2026-04-26 07:59 33.73288 -118.29939 26807 ft 473 kts 353°
2026-04-26 07:59 33.76556 -118.29460 27061 ft 490 kts
2026-04-26 07:59 33.79848 -118.28135 27357 ft 505 kts 19°
2026-04-26 07:59 33.82911 -118.25977 27675 ft 517 kts 32°
2026-04-26 08:00 33.85586 -118.23042 27933 ft 527 kts 46°
2026-04-26 08:00 33.87709 -118.19419 28211 ft 534 kts 61°
2026-04-26 08:00 33.89145 -118.15303 28506 ft 535 kts 75°
2026-04-26 08:00 33.90223 -118.11004 28818 ft 538 kts 71°
2026-04-26 08:01 33.91831 -118.06919 28971 ft 546 kts 58°
2026-04-26 08:01 33.93896 -118.02999 28968 ft 561 kts 55°
2026-04-26 08:01 33.98442 -117.95285 28958 ft 565 kts 52°
2026-04-26 08:02 34.03053 -117.87680 28967 ft 565 kts 52°
2026-04-26 08:02 34.07643 -117.79982 28972 ft 565 kts 53°
2026-04-26 08:03 34.12325 -117.72381 28967 ft 563 kts 49°
2026-04-26 08:03 34.17374 -117.65147 28967 ft 562 kts 47°
2026-04-26 08:04 34.22447 -117.57959 28957 ft 562 kts 48°
2026-04-26 08:04 34.27449 -117.50707 28954 ft 561 kts 49°
2026-04-26 08:05 34.32403 -117.43413 28953 ft 561 kts 49°
2026-04-26 08:05 34.37341 -117.36123 28953 ft 560 kts 49°
2026-04-26 08:06 34.42278 -117.28832 28943 ft 559 kts 50°
2026-04-26 08:06 34.47169 -117.21594 28944 ft 559 kts 50°
2026-04-26 08:07 34.52090 -117.14298 28934 ft 558 kts 50°
2026-04-26 08:07 34.56998 -117.07008 28925 ft 558 kts 50°
2026-04-26 08:08 34.61905 -116.99703 28903 ft 557 kts 51°
2026-04-26 08:08 34.66801 -116.92400 28891 ft 557 kts 51°
2026-04-26 08:09 34.71689 -116.85094 28879 ft 557 kts 51°
2026-04-26 08:09 34.76575 -116.77774 28857 ft 557 kts 51°
2026-04-26 08:10 34.81454 -116.70448 28859 ft 557 kts 51°
2026-04-26 08:10 34.86649 -116.63480 28865 ft 555 kts 39°
2026-04-26 08:11 34.92630 -116.57532 28860 ft 555 kts 37°
2026-04-26 08:11 34.98655 -116.51669 28860 ft 553 kts 37°
2026-04-26 08:12 35.04656 -116.45836 28741 ft 547 kts 37°
2026-04-26 08:12 35.07622 -116.42950 28051 ft 543 kts 37°
2026-04-26 08:12 35.10496 -116.39972 27309 ft 541 kts 44°
2026-04-26 08:13 35.13095 -116.36753 26718 ft 536 kts 47°
2026-04-26 08:13 35.15641 -116.33461 26137 ft 529 kts 47°
2026-04-26 08:13 35.18156 -116.30195 25543 ft 524 kts 48°
2026-04-26 08:13 35.20637 -116.26974 24942 ft 518 kts 48°
2026-04-26 08:14 35.23100 -116.23777 24177 ft 516 kts 48°
2026-04-26 08:14 35.25517 -116.20536 23294 ft 515 kts 50°
2026-04-26 08:14 35.27886 -116.17260 22439 ft 512 kts 50°
2026-04-26 08:14 35.30237 -116.14007 21667 ft 508 kts 50°
2026-04-26 08:15 35.32560 -116.10804 20790 ft 499 kts 50°
2026-04-26 08:15 35.34843 -116.07663 20104 ft 488 kts 50°
2026-04-26 08:15 35.37085 -116.04572 19431 ft 483 kts 50°
2026-04-26 08:15 35.39308 -116.01510 18782 ft 477 kts 50°
2026-04-26 08:16 35.41499 -115.98492 18138 ft 470 kts 50°
2026-04-26 08:16 35.43652 -115.95523 17728 ft 460 kts 50°
2026-04-26 08:16 35.45733 -115.92651 17605 ft 441 kts 50°
2026-04-26 08:16 35.46414 -115.91710 17567 ft 436 kts 50°